Weather History for Westhampton Beach, NY

Change the Weather History Date:

Sunday, May 5, 2013

  Actual Average Record
Temperature  
Mean Temperature 44 °F -  
Max Temperature 55 °F 62 °F 79 °F (2000)
Min Temperature 32 °F 42 °F 26 °F (2003)
Degree Days  
Heating Degree Days 22    
Moisture  
Dew Point 38 °F    
Average Humidity 77    
Maximum Humidity 93    
Minimum Humidity 55    
Precipitation  
Precipitation 0.00 in - - ()
Sea Level Pressure  
Sea Level Pressure 30.29 in    
Wind  
Wind Speed 6 mph (ENE)    
Max Wind Speed 14 mph    
Max Gust Speed 22 mph    
Visibility 10 miles    
Events      
Averages and records for this station are not official NWS values.
T = Trace of Precipitation, MM = Missing Value Source: NWS Daily Summary

Daily Weather History Graph

Daily Weather History Graph

Search for Another Location

Airport:

Trip Planner

Search our weather history database for the weather conditions in past years. The results will help you decide how hot, cold, wet, or windy it might be!

Date:

Astronomy

May. 05, 2013 Rise Set
Actual Time 5:43 AM EDT 7:51 PM EDT
Civil Twilight 5:13 AM EDT 8:21 PM EDT
Nautical Twilight 4:36 AM EDT 8:58 PM EDT
Astronomical Twilight 3:56 AM EDT 9:39 PM EDT
Moon 3:14 AM EDT (5/5) 3:46 PM EDT (5/5)
Length of Visible Light 15h 08m
Length of Day
14h 07m
Waning Crescent, 18% of the Moon is Illuminated
May 5
Waning Crescent
May 9
New
May 18
First Quarter
May 25
Full
May 31
Last Quarter

Hourly Weather History & Observations

Time (EDT) Temp. Windchill Dew Point Humidity Pressure Visibility Wind Dir Wind Speed Gust Speed Precip Events Conditions
12:53 AM 37.0 °F 33.3 °F 33.1 °F 86% 30.32 in 10.0 mi NE 4.6 mph - N/A   Clear
1:53 AM 33.1 °F 30.0 °F 28.0 °F 82% 30.30 in 10.0 mi NNE 3.5 mph - N/A   Clear
2:53 AM 32.0 °F - 28.0 °F 85% 30.29 in 10.0 mi Calm Calm - N/A   Clear
3:53 AM 37.9 °F 33.5 °F 33.1 °F 83% 30.28 in 10.0 mi NNE 5.8 mph - N/A   Partly Cloudy
4:30 AM 42.8 °F 38.0 °F 37.4 °F 81% 30.28 in 10.0 mi North 8.1 mph - N/A   Mostly Cloudy
4:53 AM 42.1 °F 37.1 °F 37.9 °F 85% 30.28 in 10.0 mi North 8.1 mph - N/A   Scattered Clouds
5:53 AM 41.0 °F 35.8 °F 37.9 °F 89% 30.28 in 10.0 mi North 8.1 mph - N/A   Clear
6:53 AM 44.1 °F 39.5 °F 41.0 °F 89% 30.30 in 10.0 mi North 8.1 mph - N/A   Overcast
7:28 AM 46.4 °F 41.9 °F 41.0 °F 81% 30.30 in 10.0 mi NNE 9.2 mph - N/A   Mostly Cloudy
7:53 AM 46.0 °F 41.9 °F 41.0 °F 83% 30.30 in 10.0 mi ENE 8.1 mph - N/A   Overcast
8:06 AM 46.4 °F 42.9 °F 39.2 °F 76% 30.31 in 10.0 mi ENE 6.9 mph - N/A   Overcast
8:25 AM 48.2 °F - 39.2 °F 71% 30.31 in 10.0 mi Variable 5.8 mph 17.3 mph N/A   Overcast
8:53 AM 50.0 °F - 39.9 °F 68% 30.31 in 10.0 mi NE 10.4 mph - N/A   Mostly Cloudy
9:53 AM 50.0 °F - 39.9 °F 68% 30.31 in 10.0 mi ENE 6.9 mph - N/A   Overcast
10:53 AM 51.1 °F - 39.9 °F 66% 30.31 in 10.0 mi Variable 6.9 mph - N/A   Overcast
11:53 AM 52.0 °F - 39.9 °F 63% 30.31 in 10.0 mi East 8.1 mph - N/A   Overcast
12:53 PM 53.1 °F - 41.0 °F 64% 30.30 in 10.0 mi ESE 8.1 mph 19.6 mph N/A   Overcast
1:12 PM 53.6 °F - 41.0 °F 62% 30.30 in 10.0 mi East 10.4 mph 19.6 mph N/A   Scattered Clouds
1:53 PM 55.0 °F - 39.0 °F 55% 30.29 in 10.0 mi SE 12.7 mph 20.7 mph N/A   Clear
2:53 PM 54.0 °F - 39.9 °F 59% 30.29 in 10.0 mi SE 10.4 mph 20.7 mph N/A   Clear
3:53 PM 53.1 °F - 39.9 °F 61% 30.28 in 10.0 mi ESE 13.8 mph 21.9 mph N/A   Clear
4:53 PM 52.0 °F - 39.9 °F 63% 30.28 in 10.0 mi SE 9.2 mph - N/A   Clear
5:53 PM 51.1 °F - 41.0 °F 68% 30.27 in 10.0 mi ESE 6.9 mph - N/A   Partly Cloudy
6:53 PM 50.0 °F - 41.0 °F 71% 30.27 in 10.0 mi ESE 8.1 mph - N/A   Partly Cloudy
7:53 PM 46.9 °F - 41.0 °F 80% 30.28 in 10.0 mi ESE 3.5 mph - N/A   Clear
8:21 PM 46.4 °F 45.2 °F 41.0 °F 81% 30.28 in 10.0 mi ESE 3.5 mph - N/A   Scattered Clouds
8:41 PM 46.4 °F - 41.0 °F 81% 30.28 in 10.0 mi Calm Calm - N/A   Mostly Cloudy
8:53 PM 45.0 °F 43.5 °F 39.9 °F 82% 30.28 in 10.0 mi East 3.5 mph - N/A   Scattered Clouds
9:53 PM 37.9 °F 35.5 °F 34.0 °F 86% 30.29 in 10.0 mi NE 3.5 mph - N/A   Partly Cloudy
10:29 PM 35.6 °F - 33.8 °F 93% 30.29 in 9.0 mi Calm Calm - N/A   Mostly Cloudy
10:53 PM 35.1 °F - 30.9 °F 85% 30.29 in 9.0 mi Calm Calm - N/A   Mostly Cloudy
11:16 PM 33.8 °F 30.8 °F 30.2 °F 87% 30.28 in 9.0 mi North 3.5 mph - N/A   Scattered Clouds
11:30 PM 35.6 °F - 32.0 °F 87% 30.29 in 10.0 mi Calm Calm - N/A   Mostly Cloudy
11:53 PM 39.0 °F - 35.1 °F 86% 30.29 in 9.0 mi Calm Calm - N/A   Overcast